Regional Weather Roundup
Issued by NWS Jackson, KY

Home | Current Version | Previous Version | Text Only | Print | Product List | Glossary Off
Versions: 1 2 3 4 5 6 7 8 9 10 11 12 13 14 15 16 17 18 19 20 21 22 23 24 25 26 27 28 29 30 31 32 33 34 35 36 37 38 39 40 41 42 43 44 45 46 47 48 49 50

441
ASUS43 KJKL 201210
RWRJKL

EAST KENTUCKY HOURLY WEATHER ROUNDUP
NATIONAL WEATHER SERVICE JACKSON KY
700 AM EST MON FEB 20 2017

NOTE: "FAIR" INDICATES FEW OR NO CLOUDS BELOW 12,000 FEET WITH
NO SIGNIFICANT WEATHER AND/OR OBSTRUCTIONS TO VISIBILITY.

* THESE REPORTS ARE NOT UNDER NWS QUALITY CONTROL AND MAY NOT
  REPORT WEATHER SUCH AS PRECIPITATION AND FOG.

KYZ079-080-083-085-087-088-110-112-115-119-120-201300
...EASTERN KENTUCKY...

CITY           SKY/WX    TMP DP  RH WIND       PRES   REMARKS
JACKSON        CLEAR     44  41  89 CALM      30.23R
6HR MIN TEMP:  44; 6HR MAX TEMP:  49;

LONDON         CLOUDY    35  33  92 CALM      30.21S
6HR MIN TEMP:  35; 6HR MAX TEMP:  42;

SOMERSET*      CLEAR     34  34 100 CALM      30.24R
MONTICELLO*    FOG       32  30  93 NW9       30.24R VSB 3/4 WCI  24
6HR MIN TEMP:  31; 6HR MAX TEMP:  39;

WILLIAMSBURG*    N/A     37  37 100 CALM      30.21R VSB 1/2
MIDDLESBORO*   FOG       38  38 100 CALM      30.25R VSB<1/4
6HR MIN TEMP:  37; 6HR MAX TEMP:  38;

HARLAN APT*    CLOUDY    37  36  93 CALM      30.25R VSB 1/4
PIKE CO APT*     N/A     42  42 100 CALM      30.23R
BIG SANDY APT* FOG       38  38 100 CALM      30.23R VSB<1/4
6HR MIN TEMP:  36; 6HR MAX TEMP:  46;

MOREHEAD APT*  FOG       41  39  93 CALM      30.25R VSB<1/4
ASHLAND*       CLOUDY    39  37  93 CALM      30.24R VSB 1/4
$$

KYZ035-036-041-042-044-050-067-078-099-201300
...CENTRAL KENTUCKY...

CITY           SKY/WX    TMP DP  RH WIND       PRES   REMARKS
MT STERLING*   FOG       32  32 100 CALM      30.24R VSB 3/4
FLEMING/MASON* FOG       32  32 100 NE5       30.25R VSB<1/4 WCI  27
DANVILLE*      CLOUDY    34  34 100 CALM      30.22R FOG
LEXINGTON      CLEAR     39  37  92 CALM      30.22R FOG
6HR MIN TEMP:  36; 6HR MAX TEMP:  44;

FRANKFORT      FOG       37  35  92 E3        30.20R VSB<1/4
6HR MIN TEMP:  36; 6HR MAX TEMP:  38;

LOUISVILLE     FOG       41  39  93 CALM      30.21R VSB 1/8
6HR MIN TEMP:  41; 6HR MAX TEMP:  43;

LEBANON*         N/A     43  43 100 CALM      30.21R FOG
GLASGOW*       FOG      N/A N/A N/A CALM      30.19F VSB 1
BOWLING GREEN  FOG       40  39  97 E3        30.18F VSB 1/4
6HR MIN TEMP:  39; 6HR MAX TEMP:  45;

$$

KYZ091>093-OHZ055-061-077-WVZ005-015-034-035-042-201300
...SOUTHERN OHIO/WEST VIRGINIA...

CITY           SKY/WX    TMP DP  RH WIND       PRES   REMARKS
COVINGTON      FOG       38  38 100 E3        30.22R VSB 1/2
COLUMBUS       FOG       39  38  96 CALM      30.24R VSB 1/8
DAYTON         FOG       36  35  96 CALM      30.23R VSB 1/16
WILMINGTON     FOG       34  34 100 CALM      30.22R VSB<1/4
HUNTINGTON     FOG       35  35 100 CALM      30.24R VSB 1/4
CHARLESTON     FOG       37  37 100 CALM      30.24R VSB 1/4
PINEVILLE*     FOG       35  33  92 MISG      30.30R VSB 1/4
BECKLEY        FOG       30  29  96 CALM      30.22R VSB<1/4
BLUEFIELD      CLOUDY    43  40  89 SW5       30.24R
LOGAN CO APT*  FOG       37  37 100 CALM      30.22R VSB<1/4
$$

VAZ002-007-008-TNZ017-027-036-066-071-201300
...SOUTHWEST VIRGINIA/EAST TENNESSEE...

CITY           SKY/WX    TMP DP  RH WIND       PRES   REMARKS
WISE*          CLEAR     43  43 100 CALM      30.23R
JONESVILLE*    FOG       32  32 100 CALM      30.25R VSB 3/4
ABINGDON*      CLOUDY    39  39  99 E5        30.22R
BRISTOL        FOG       34  33  96 CALM      30.23R VSB 1/4
MORRISTOWN*    SUNNY     41  41 100 CALM      30.20R FOG
SEVIERVILLE*   SUNNY     34  32  93 CALM      30.21R
KNOXVILLE      CLOUDY    39  37  92 NE3       30.20R
LAFOLLETTE*    FOG       36  36 100 CALM      30.24R VSB 1/4
OAK RIDGE      CLOUDY    41  39  93 CALM      30.22R
CROSSVILLE     CLEAR     39  38  96 CALM      30.21R
NASHVILLE      MOCLDY    48  45  89 NE6       30.17F
$$

...KEY TO REMARKS...
VSB - VISIBILITY IN MILES
WCI - WIND CHILL INDEX
HX  - HEAT INDEX

$$




USA.gov is the U.S. government's official web portal to all federal, state and local government web resources and services.